Location: Brachbach
(49.1847°N, 9.7240°E)
Time: 07:38:57
(UTC+00:00)

Cosmos 1025 Rocket - Pass Details

Date: 12 August 2024
Orbit: 590 x 612 km, 82.5° (Epoch: 07 September)

Event Time Altitude Azimuth Distance (km) Brightness Sun altitude
Rises 02:51:43 0° 355° (N) 2,890 7.0 -11.6°
Reaches altitude 10° 02:54:04 10° 4° (N) 1,982 6.3 -11.3°
Maximum altitude 02:58:12 40° 74° (ENE) 917 4.6 -10.7°
Drops below altitude 10° 03:02:19 10° 144° (SE) 1,969 5.6 -10.2°
Sets 03:04:38 0° 152° (SSE) 2,868 6.4 -9.9°
